TimeWET,TemperatureF,Dew PointF,Humidity,Sea Level PressureIn,VisibilityMPH,Wind Direction,Wind SpeedMPH,Gust SpeedMPH,PrecipitationIn,Events,Conditions,WindDirDegrees,DateUTC
12:00 AM,58,53,77,30.04,6,South,3.5,,,,,180,2012-11-10 00:00:00
12:00 AM,57.2,53.6,88,30.04,-9999.0,South,3.5,-,N/A,,Clear,180,2012-11-10 00:00:00
1:00 AM,55.4,51.8,88,30.01,6.2,Calm,Calm,-,N/A,,Unknown,0,2012-11-10 01:00:00
2:00 AM,55.4,53.6,94,30.01,6.2,East,3.5,-,N/A,,Unknown,100,2012-11-10 02:00:00
3:00 AM,57,54,84,30.02,6,NNE,3.5,,,,Partly Cloudy,30,2012-11-10 03:00:00
3:00 AM,57.2,53.6,88,30.01,6.2,NNE,3.5,-,N/A,,Scattered Clouds,30,2012-11-10 03:00:00
4:00 AM,57.2,53.6,88,30.01,6.2,SE,4.6,-,N/A,,Scattered Clouds,130,2012-11-10 04:00:00
5:00 AM,55.4,53.6,94,30.01,6.2,SE,2.3,-,N/A,,Unknown,130,2012-11-10 05:00:00
6:00 AM,56,54,90,30.03,6,Calm,Calm,,,,,,2012-11-10 06:00:00
6:00 AM,55.4,53.6,94,30.01,6.2,Calm,Calm,-,N/A,,Unknown,0,2012-11-10 06:00:00
7:00 AM,55.4,53.6,94,30.04,6.2,NNW,3.5,-,N/A,,Scattered Clouds,330,2012-11-10 07:00:00
8:00 AM,57.2,55.4,94,30.04,6.2,Calm,Calm,-,N/A,,Scattered Clouds,0,2012-11-10 08:00:00
9:00 AM,62,58,83,30.06,6,West,3.5,,,,Partly Cloudy,260,2012-11-10 09:00:00
9:00 AM,62.6,59.0,88,30.06,6.2,West,3.5,-,N/A,,Scattered Clouds,260,2012-11-10 09:00:00
10:00 AM,66.2,57.2,73,30.06,6.2,WSW,8.1,-,N/A,,Scattered Clouds,250,2012-11-10 10:00:00
11:00 AM,69.8,53.6,56,30.06,6.2,West,11.5,-,N/A,,Scattered Clouds,260,2012-11-10 11:00:00
12:00 PM,70,54,47,30.05,6,West,13.8,,,,Partly Cloudy,260,2012-11-10 12:00:00
12:00 PM,69.8,53.6,56,30.04,6.2,West,13.8,-,N/A,,Scattered Clouds,260,2012-11-10 12:00:00
1:00 PM,71.6,55.4,57,30.01,6.2,West,15.0,-,N/A,,Scattered Clouds,260,2012-11-10 13:00:00
2:00 PM,71.6,55.4,57,29.98,6.2,West,21.9,-,N/A,,Scattered Clouds,270,2012-11-10 14:00:00
3:00 PM,72,55,45,29.98,6,West,18.4,,,,Partly Cloudy,270,2012-11-10 15:00:00
3:00 PM,71.6,55.4,57,29.98,6.2,West,18.4,-,N/A,,Scattered Clouds,270,2012-11-10 15:00:00
4:00 PM,69.8,55.4,60,29.98,6.2,West,19.6,-,N/A,,Scattered Clouds,270,2012-11-10 16:00:00
5:00 PM,69.8,55.4,60,29.98,6.2,West,16.1,-,N/A,,Unknown,270,2012-11-10 17:00:00
6:00 PM,67,53,50,29.99,6,West,12.7,,,,Scattered Clouds,280,2012-11-10 18:00:00
6:00 PM,66.2,51.8,60,29.98,6.2,West,12.7,-,N/A,,Partly Cloudy,280,2012-11-10 18:00:00
7:00 PM,64.4,53.6,68,29.98,6.2,WSW,6.9,-,N/A,,Partly Cloudy,240,2012-11-10 19:00:00
8:00 PM,62.6,51.8,68,30.01,6.2,Calm,Calm,-,N/A,,Partly Cloudy,0,2012-11-10 20:00:00
9:00 PM,61,55,75,30.03,6,SSE,8.1,,,,Scattered Clouds,150,2012-11-10 21:00:00
9:00 PM,60.8,55.4,82,30.01,6.2,SSE,8.1,-,N/A,,Partly Cloudy,150,2012-11-10 21:00:00
10:00 PM,60.8,55.4,82,30.04,6.2,South,6.9,-,N/A,,Partly Cloudy,170,2012-11-10 22:00:00
11:00 PM,62.6,55.4,77,30.04,6.2,South,6.9,-,N/A,,Partly Cloudy,180,2012-11-10 23:00:00